Погода в Бокситогорске

Россия / Санкт-Петербург и Ленинградская область     59°28′24″N   33°50′51″E
темп.,
°C
ветер,
м/с
пор.,
м/с
влажн.,
%
обл.,
%
осадки,
мм/ч
давл.,
гПа
погр.,
м
25 июля, вс
вс2500:00+10ююз226420 0.0 101718
03:00+9ююз11705 0.0 101812
06:00+11ююз236996 0.0 101878
09:00+15юз2360100 0.0 1018195
12:00+19зюз3545100 0.0 1019734
15:00+18зюз365285 0.0 1019519
18:00+21з4645100 0.0 10191322
21:00+15ююз226712 0.0 101916
26 июля, пн
пн2600:00+16ююз2365100 0.0 102072
03:00+15юз2568100 0.0 1020125
06:00+15юз247064 0.0 1021135
09:00+21зюз23535 0.0 1021490
12:00+25з23394 0.0 10211723
15:00+27зсз343356 0.0 10202683
18:00+27сз343729 0.0 10192126
21:00+19ссз01645 0.0 102011
27 июля, вт
вт2700:00+16с007327 0.0 102111
03:00+15ю11785 0.0 102110
06:00+16ююз00845 0.3 102113
09:00+22юз22605 0.4 1021316
12:00+28з22380 0.0 10191663
15:00+29з123182 0.0 10182787
18:00+24с1150100 0.0 101711
21:00+20вюв24662 0.0 101779
28 июля, ср
ср2800:00+17вюв39760 0.0 1017183
03:00+16вюв27820 0.0 1016137
06:00+17вюв24792 0.0 1015109
09:00+24юв34535 0.0 1013494
12:00+28юв243762 0.0 10111898
15:00+29ююв3337100 0.0 10082261
18:00+24ююз5857100 0.0 1008540
21:00+19ю2581100 0.0 1007149
29 июля, чт
чт2900:00+16ююв2296100 0.0 100625
03:00+16ю2499100 0.0 1005101
06:00+17ююз1395100 0.0 1005152
09:00+21юз347690 0.0 1004735
12:00+21зюз468534 1.3 1003683
15:00+20зюз388976 4.3 1003807
18:00+20з411825 4.7 1002541
21:00+17з3129049 8.8 1002380